Regional Weather Roundup
Issued by NWS Little Rock, AR

Home | Current Version | Previous Version | Graphics & Text | Print | Product List | Glossary On
Versions: 1 2 3 4 5 6 7 8 9 10 11 12 13 14 15 16 17 18 19 20 21 22 23 24 25 26 27 28 29 30 31 32 33 34 35 36 37 38 39 40 41 42 43 44 45 46 47 48 49 50
722
ASUS44 KLZK 180905
RWRLZK

WEATHER ROUNDUP FOR ARKANSAS
NATIONAL WEATHER SERVICE LITTLE ROCK AR
400 AM CDT FRI AUG 18 2017

NOTE: "FAIR" INDICATES FEW OR NO CLOUDS BELOW 12,000 FEET WITH NO
SIGNIFICANT WEATHER AND/OR OBSTRUCTIONS TO VISIBILITY.

ARZ001-003-010-029-181000-
NORTHWEST ARKANSAS

CITY           SKY/WX    TMP DP  RH WIND       PRES   REMARKS
FAYETTEVILLE   MOCLDY    67  67 100 S3        30.03S
FORT SMITH     CLEAR     74  73  97 CALM      29.99F
HARRISON       CLEAR     67  67 100 SW3       30.03S
BENTONVILLE    PTCLDY    70  66  88 CALM      30.03S
ROGERS         PTCLDY    68  67  96 CALM      30.04S
SILOAM SPGS    MOCLDY    68  66  94 S5        30.02S
HIGHFILL       FOG       70  70 100 SW5       30.03F VSB 1/4
$$

ARZ004-005-016-181000-
NORTH CENTRAL ARKANSAS

CITY           SKY/WX    TMP DP  RH WIND       PRES   REMARKS
BATESVILLE     CLEAR     72  70  94 W3        29.99R
FLIPPIN        CLEAR     66  63  88 CALM      29.98S
MTN HOME       CLEAR     66  66 100 CALM      30.00S FOG
$$

ARZ040-041-181000-
WEST CENTRAL ARKANSAS

CITY           SKY/WX    TMP DP  RH WIND       PRES   REMARKS
MENA           MOCLDY    72  72 100 CALM      30.03F
MOUNT IDA      PTCLDY    70  68  93 CALM      30.00R FOG
$$

ARZ009-017-025-026-028-181000-
NORTHEAST ARKANSAS

CITY           SKY/WX    TMP DP  RH WIND       PRES   REMARKS
JONESBORO      PTCLDY    73  73 100 W5        29.96R
NEWPORT        PTCLDY    72  71  97 W6        29.98R
WALNUT RIDGE   CLEAR     70  66  88 CALM      29.96S
BLYTHEVILLE    CLEAR     73  72  96 CALM      29.95S
$$

ARZ022-023-033-042-044-181000-
CENTRAL ARKANSAS

CITY           SKY/WX    TMP DP  RH WIND       PRES   REMARKS
LITTLE ROCK    CLOUDY    73  73 100 W5        29.99S
N LITTLE ROCK    N/A     74  72  94 W3        30.00R
JACKSONVILLE   PTCLDY    71  71 100 CALM      29.98S
CONWAY           N/A     72  72 100 S3        29.98R
SEARCY           N/A    N/A N/A N/A MISG        N/A
HOT SPRINGS    CLOUDY    74  74 100 CALM      30.01R
RUSSELLVILLE   FOG       70  70 100 CALM      29.99S VSB 1/2
CLINTON        CLOUDY    68  68 100 CALM      30.00S FOG
$$

ARZ036-181000-
EAST ARKANSAS

CITY           SKY/WX    TMP DP  RH WIND       PRES   REMARKS
WEST MEMPHIS   PTCLDY    74  73  97 VRB3      29.96R
$$

ARZ050-053-066-070-073-181000-
SOUTHWEST ARKANSAS

CITY           SKY/WX    TMP DP  RH WIND       PRES   REMARKS
ARKADELPHIA    PTSUNNY   72  71  97 CALM      30.00S
CAMDEN         CLOUDY    75  72  88 CALM      29.99S
TEXARKANA      MOCLDY    75  74  96 CALM      29.99F
EL DORADO      MOCLDY    75  73  93 CALM      30.00S
DE QUEEN       CLOUDY    75  75 100 CALM      29.99S
$$

ARZ056-057-069-181000-
SOUTHEAST ARKANSAS

CITY           SKY/WX    TMP DP  RH WIND       PRES   REMARKS
PINE BLUFF     CLEAR     73  71  93 CALM      29.99S
MONTICELLO     MOCLDY    76  73  91 W5        29.99S

$$






USA.gov is the U.S. government's official web portal to all federal, state and local government web resources and services.